Tracking 19562 objects as of 21-Mar-2019
HD Live streaming from Space Station
objects crossing your sky now

ONEWEB-0006

Track ONEWEB-0006 now!
10-day predictions


NORAD ID: 44061
Int'l Code: 2019-010E
Perigee: 994.3 km
Apogee: 1,015.5 km
Inclination: 87.8 °
Period: 105.1 minutes
Semi major axis: 7375 km
RCS: Unknown
Launch date: February 27, 2019
Source: United Kingdom (UK)
Launch site: FRENCH GUIANA (FRGUI)
aabbcc
Your satellite tracking list
Your tracking list is empty




NASA's NSSDC Master Catalog

Two Line Element Set (TLE):
1 44061U 19010E   19079.92533679 +.00000052 +00000-0 +41213-4 0  9998
2 44061 087.7723 065.9056 0014364 180.0295 180.0868 13.70498760002867
Source of the keplerian elements: AFSPC